Location: Central Falls
(41.8900°N, 71.3929°W)
Time: 14:17:18
(UTC+00:00)

Courier 1B Rocket - Pass Details

Date: 04 December 2023
Orbit: 920 x 1202 km, 28.2° (Epoch: 01 March)

Event Time Altitude Azimuth Distance (km) Brightness Sun altitude
Rises 20:35:54 0° 252° (WSW) 3,572 9.6 5.2°
Reaches altitude 10° 20:39:19 10° 235° (SW) 2,609 10.3 4.7°
Maximum altitude 20:43:28 19° 193° (SSW) 2,052 7.5 4.1°
Drops below altitude 10° 20:47:37 10° 151° (SSE) 2,610 7.4 3.4°
Sets 20:51:02 0° 133° (SE) 3,574 7.8 2.9°
